DW5513 Weather Reports


Display with metric or nautical units.
time (UTC)temp
F
wind
direction
speed
MPH
gust
MPH
rain 1hr
in
rain 24hr
in
rain mn
in
humidity
%
barometer
mb
20260507224551 54 302 2.0 7.0 0.00 0.00 0.00 39 1009.6
20260507223152 54 236 3.0 9.0 0.00 0.00 0.00 39 1009.5
20260507221549 54 246 2.0 8.0 0.00 0.00 0.00 39 1009.6
20260507220048 54 332 3.0 14.0 0.00 0.00 0.00 39 1009.6
20260507214548 54 302 5.0 12.0 0.00 0.00 0.00 37 1009.8
20260507213147 54 162 3.0 13.0 0.00 0.00 0.00 38 1009.8
20260507211556 55 289 5.0 11.0 0.00 0.00 0.00 41 1009.8
20260507210104 53 210 2.0 11.0 0.00 0.00 0.00 44 1009.8
20260507204548 53 341 3.0 10.0 0.00 0.02 0.00 47 1009.8
20260507203144 52 15 1.0 13.0 0.00 0.02 0.00 47 1009.9
20260507201543 54 318 4.0 14.0 0.00 0.02 0.00 43 1009.7
20260507200051 55 270 7.0 20.0 0.00 0.02 0.00 44 1009.9
20260507194549 55 349 4.0 10.0 0.00 0.02 0.00 46 1009.9
20260507193136 54 8 3.0 10.0 0.00 0.02 0.00 48 1010.2
20260507191536 53 340 3.0 15.0 0.00 0.02 0.00 47 1010.4
20260507190043 53 266 1.0 15.0 0.00 0.02 0.00 48 1010.5
20260507184541 53 246 4.0 11.0 0.00 0.02 0.00 50 1010.6
20260507183129 52 193 2.0 13.0 0.00 0.02 0.00 51 1010.8
20260507181528 52 242 2.0 11.0 0.00 0.02 0.00 49 1010.9
20260507180028 52 224 5.0 11.0 0.00 0.02 0.00 50 1011.0
20260507174532 52 323 4.0 12.0 0.00 0.02 0.00 53 1011.0
20260507173126 51 228 5.0 12.0 0.00 0.02 0.00 52 1011.1
20260507171522 51 171 2.0 13.0 0.00 0.02 0.00 54 1011.1
20260507170022 50 176 3.0 11.0 0.00 0.02 0.00 57 1011.3
20260507164528 50 24 3.0 16.0 0.00 0.08 0.00 56 1011.4
20260507163120 50 97 4.0 14.0 0.00 0.08 0.00 53 1011.6
20260507161516 49 13 6.0 15.0 0.00 0.08 0.00 57 1011.7
20260507160021 49 21 5.0 12.0 0.00 0.10 0.00 57 1011.8
20260507154516 48 303 2.0 10.0 0.00 0.10 0.00 58 1012.1
20260507153114 49 314 4.0 14.0 0.00 0.10 0.00 57 1012.2
20260507151516 48 92 4.0 13.0 0.00 0.10 0.00 60 1012.4
20260507150013 49 243 1.0 11.0 0.00 0.16 0.00 60 1012.2
20260507144511 48 205 1.0 10.0 0.00 0.16 0.00 60 1012.4
20260507143120 47 309 3.0 13.0 0.00 0.16 0.00 62 1012.5
20260507141515 47 4 3.0 12.0 0.00 0.16 0.00 61 1012.5
20260507140005 46 290 3.0 12.0 0.00 0.20 0.00 64 1012.4
20260507134501 45 167 3.0 12.0 0.00 0.20 0.00 64 1012.5
20260507133058 45 31 3.0 8.0 0.00 0.20 0.00 68 1012.6
20260507131601 44 297 2.0 7.0 0.00 0.20 0.00 70 1012.8
20260507130055 43 337 3.0 11.0 0.00 0.20 0.00 71 1012.7
20260507124602 42 17 3.0 12.0 0.00 0.21 0.00 73 1012.6
20260507123051 42 292 3.0 10.0 0.00 0.21 0.00 74 1012.6
20260507121548 41 290 2.0 10.0 0.00 0.21 0.00 75 1012.4
20260507120049 41 314 0.0 8.0 0.00 0.21 0.00 76 1012.4
20260507114604 40 18 2.0 8.0 0.00 0.23 0.00 78 1012.3
20260507113104 40 34 2.0 6.0 0.00 0.23 0.00 79 1012.4
20260507111546 39 314 0.0 6.0 0.00 0.23 0.00 81 1012.3
20260507110040 38 290 2.0 5.0 0.00 0.23 0.00 82 1012.2
20260507104542 37 310 0.0 3.0 0.00 0.23 0.00 86 1012.0
20260507103045 36 328 0.0 2.0 0.00 0.23 0.00 88 1011.8
20260507101534 36 359 0.0 0.0 0.00 0.00 0.00 88 1011.7
20260507100032 37 311 0.0 6.0 0.00 0.23 0.00 88 1011.6
20260507094533 37 318 2.0 6.0 0.00 0.25 0.00 88 1011.6
20260507093033 37 310 1.0 6.0 0.00 0.25 0.00 87 1011.6
20260507091525 38 118 1.0 6.0 0.00 0.25 0.00 87 1011.6
20260507090023 38 140 1.0 6.0 0.00 0.25 0.00 89 1011.4
20260507084520 39 293 1.0 3.0 0.00 0.25 0.00 90 1011.5
20260507083019 39 262 0.0 8.0 0.00 0.25 0.00 89 1011.4
20260507081525 40 247 1.0 5.0 0.00 0.25 0.00 89 1011.3
20260507080014 40 300 0.0 4.0 0.00 0.25 0.00 89 1011.2
20260507074512 41 11 0.0 4.0 0.00 0.25 0.00 89 1011.2
20260507073010 41 307 2.0 9.0 0.00 0.25 0.00 88 1011.1
20260507071507 42 300 2.0 10.0 0.00 0.25 0.00 89 1011.4
20260507070011 42 344 3.0 8.0 0.00 0.25 0.00 90 1011.2
20260507064502 42 334 1.0 8.0 0.00 0.25 0.00 91 1011.0
20260507063102 42 248 1.0 9.0 0.00 0.25 0.00 92 1011.1
20260507061558 42 162 2.0 8.0 0.00 0.25 0.00 92 1011.0
20260507054557 43 301 0.0 6.0 0.00 0.25 0.00 90 1010.9
20260507053053 43 317 0.0 4.0 0.00 0.25 0.00 90 1011.1
20260507051552 43 129 0.0 7.0 0.00 0.25 0.00 91 1011.0
20260507050049 43 290 2.0 7.0 0.00 0.25 0.00 91 1010.9
20260507044602 43 333 0.0 6.0 0.00 0.25 0.00 92 1010.7
20260507043100 44 21 0.0 5.0 0.00 0.25 0.00 92 1010.8
20260507041543 44 347 0.0 2.0 0.00 0.25 0.00 92 1010.8
20260507040041 44 84 2.0 6.0 0.00 0.25 0.00 91 1011.2
20260507034538 44 25 1.0 6.0 0.00 0.25 0.25 92 1010.8
20260507033038 45 13 0.0 4.0 0.00 0.25 0.25 93 1010.7
20260507031533 45 306 1.0 6.0 0.00 0.25 0.25 93 1010.7
20260507030031 45 238 0.0 4.0 0.00 0.25 0.25 93 1010.9
20260507024530 45 106 2.0 5.0 0.00 0.25 0.25 93 1010.8
20260507023028 45 325 0.0 3.0 0.00 0.25 0.25 93 1010.7
20260507021527 46 325 0.0 2.0 0.00 0.25 0.25 93 1011.1
20260507020043 45 238 0.0 1.0 0.00 0.25 0.25 93 1011.3
20260507014525 45 322 0.0 1.0 0.00 0.25 0.25 94 1011.1
20260507013026 45 324 0.0 1.0 0.00 0.25 0.25 94 1011.0
20260507011535 46 253 0.0 1.0 0.00 0.25 0.25 95 1011.0
20260507010024 46 228 0.0 1.0 0.00 0.25 0.25 95 1010.8
20260507004518 46 282 0.0 1.0 0.00 0.28 0.25 94 1010.2
20260507003017 46 70 0.0 0.0 0.00 0.28 0.25 94 1010.0
20260507001543 46 70 0.0 0.0 0.00 0.28 0.25 93 1009.8
20260507000016 47 69 0.0 1.0 0.00 0.28 0.25 92 1009.7
20260506234514 47 321 0.0 6.0 0.00 0.28 0.25 92 1009.7
20260506233009 47 330 1.0 3.0 0.00 0.28 0.25 91 1009.3
20260506231507 47 299 1.0 4.0 0.00 0.28 0.25 91 1009.2
20260506230005 48 34 0.0 5.0 0.00 0.28 0.25 91 1008.9